Sanford, FL

11:40 PM EDT on May 21, 2018 (GMT -0400)
Orlando Sanford

Weather History for KSFB - October, 2012

Change the Weather History Date:

Sunday, October 21, 2012

  Actual Average Record
Temperature  
Mean Temperature 68 °F 74 °F  
Max Temperature 82 °F 83 °F 92 °F (2006)
Min Temperature 55 °F 65 °F 39 °F (1989)
Degree Days  
Heating Degree Days 0 0  
Month to date heating degree days 0  
Since 1 July heating degree days 0  
Cooling Degree Days 3 9  
Month to date cooling degree days 248  
Year to date cooling degree days 3142  
Growing Degree Days 18 (Base 50)    
Moisture  
Dew Point 54 °F    
Average Humidity 59    
Maximum Humidity 87    
Minimum Humidity 38    
Precipitation  
Precipitation 0.00 in 0.10 in 1.12 in (1998)
Month to date precipitation 2.86  
Year to date precipitation 45.64  
Snow  
Snow 0.00 in - - ()
Month to date snowfall  
Since 1 July snowfall  
Snow Depth -    
Sea Level Pressure  
Sea Level Pressure 30.03 in    
Wind  
Wind Speed 5 mph (North)    
Max Wind Speed 12 mph    
Max Gust Speed -    
Visibility 10 miles    
Events      
T = Trace of Precipitation, MM = Missing Value Source: NWS Daily Summary

Daily Weather History Graph

Daily Weather History Graph

Search for Another Location

Airport or City:

Astronomy

Oct. 21, 2012 Rise Set
Actual Time 7:29 AM EDT 6:48 PM EDT
Civil Twilight 7:05 AM EDT 7:12 PM EDT
Nautical Twilight 6:38 AM EDT 7:40 PM EDT
Astronomical Twilight 6:10 AM EDT 8:07 PM EDT
Moon 1:40 PM EDT (10/21) No Moon Set
Length of Visible Light 12h 06m
Length of Day
11h 18m
Waxing Crescent, 45% of the Moon is Illuminated
Oct 21
Waxing Crescent
Oct 21
First Quarter
Oct 29
Full
Nov 6
Last Quarter
Nov 13
New

Hourly Weather History & Observations

Time (EDT) Temp. Heat Index Dew Point Humidity Pressure Visibility Wind Dir Wind Speed Gust Speed Precip Events Conditions
12:53 AM 64.9 °F - 48.9 °F 56% 29.97 in 10.0 mi Calm Calm - N/A   Clear
1:53 AM 59.0 °F - 50.0 °F 72% 29.98 in 10.0 mi NNW 3.5 mph - N/A   Clear
2:53 AM 57.9 °F - 50.0 °F 75% 29.97 in 10.0 mi NW 4.6 mph - N/A   Clear
3:53 AM 59.0 °F - 51.1 °F 75% 29.97 in 10.0 mi NW 3.5 mph - N/A   Clear
4:53 AM 55.9 °F - 52.0 °F 87% 29.98 in 10.0 mi West 4.6 mph - N/A   Clear
5:53 AM 55.9 °F - 51.1 °F 84% 29.99 in 10.0 mi WNW 4.6 mph - N/A   Clear
6:53 AM 59.0 °F - 51.1 °F 75% 30.01 in 10.0 mi NNW 4.6 mph - N/A   Clear
7:53 AM 63.0 °F - 51.1 °F 65% 30.01 in 10.0 mi NNW 8.1 mph - N/A   Clear
8:53 AM 66.0 °F - 51.1 °F 59% 30.04 in 10.0 mi North 10.4 mph - N/A   Clear
9:53 AM 72.0 °F - 50.0 °F 46% 30.05 in 10.0 mi North 6.9 mph - N/A   Clear
10:53 AM 75.9 °F - 53.1 °F 45% 30.06 in 10.0 mi North 9.2 mph - N/A   Clear
11:53 AM 79.0 °F - 52.0 °F 39% 30.06 in 10.0 mi NE 8.1 mph - N/A   Clear
12:53 PM 80.1 °F 79.9 °F 53.1 °F 39% 30.05 in 10.0 mi Variable 6.9 mph - N/A   Clear
1:53 PM 81.0 °F 80.4 °F 53.1 °F 38% 30.03 in 10.0 mi NE 10.4 mph - N/A   Clear
2:53 PM 81.0 °F 80.7 °F 55.0 °F 41% 30.01 in 10.0 mi NE 10.4 mph - N/A   Clear
3:53 PM 81.0 °F 80.7 °F 55.0 °F 41% 30.01 in 10.0 mi NE 9.2 mph - N/A   Clear
4:53 PM 80.1 °F 80.1 °F 55.0 °F 42% 30.01 in 10.0 mi NE 10.4 mph - N/A   Clear
5:53 PM 77.0 °F - 55.9 °F 48% 30.02 in 10.0 mi ENE 11.5 mph - N/A   Clear
6:53 PM 73.0 °F - 57.9 °F 59% 30.04 in 10.0 mi NNE 5.8 mph - N/A   Clear
7:53 PM 70.0 °F - 57.9 °F 65% 30.05 in 10.0 mi North 4.6 mph - N/A   Clear
8:53 PM 70.0 °F - 57.0 °F 63% 30.06 in 10.0 mi North 5.8 mph - N/A   Clear
9:53 PM 69.1 °F - 57.9 °F 68% 30.08 in 10.0 mi North 5.8 mph - N/A   Clear
10:53 PM 68.0 °F - 57.9 °F 70% 30.08 in 10.0 mi North 5.8 mph - N/A   Clear
11:53 PM 66.9 °F - 59.0 °F 76% 30.08 in 10.0 mi North 5.8 mph - N/A   Clear